Regional Weather Roundup
Issued by NWS Goodland, KS

Home | Current Version | Previous Version | Graphics & Text | Print | Product List | Glossary On
Versions: 1 2 3 4 5 6 7 8 9 10 11 12 13 14 15 16 17 18 19 20 21 22 23 24 25 26 27 28 29 30 31 32 33 34 35 36 37 38 39 40 41 42 43 44 45 46 47 48 49 50
000
ASUS43 KGLD 051559
RWRGLD

GOODLAND FORECAST AREA HOURLY WEATHER ROUNDUP
NATIONAL WEATHER SERVICE GOODLAND KS
900 AM MST THU MAR 05 2015

...OFFICIAL OBSERVATIONS...

CITY           SKY/WX    TMP DP  RH WIND       PRES   REMARKS
GOODLAND KS    SUNNY     31  16  54 SW7       30.31R
HILL CITY KS   SUNNY     20   8  60 CALM      30.42S
IMPERIAL NEB     N/A     25  14  63 SW8       30.29S
MCCOOK NEB     SUNNY     22  10  60 SW5       30.36F
AKRON CO       SUNNY     30   9  41 SW10      30.23R
BURLINGTON CO  SUNNY     30  15  53 W13       30.29R WCI  20
LIMON CO       SUNNY     10   1  67 N6        30.24R
$$

...UNOFFICIAL OBSERVATIONS...

CITY           SKY/WX    TMP DP  RH WIND       PRES   REMARKS
COLBY KS       SUNNY     30  19  64 SW7       30.35R
GOVE KS          N/A     25  32 100 MISG        N/A
NORTON KS      SUNNY     19   5  53 SE5       30.39S
SHARON SPRINGS   N/A     29  22  73 CALM        N/A
KIT CARSON CO    N/A     20  13  75 MISG        N/A
YUMA CO          N/A     30  12  48 SW12        N/A
$$



USA.gov is the U.S. government's official web portal to all federal, state and local government web resources and services.